www.pogodaiklimat.ru

Погода и климат >> Архив погоды >> Япония >> Титидзима


ПОГОДА на Титидзиме

  • Прогноз погоды на Титидзиме
  • Монитор погоды на Титидзиме

АРХИВ ПОГОДЫ на Титидзиме

Время (UTC), дата Ветер
(напр.,м/с)
 
Видим.   Явления Облачность Т
(С)
Тd
(С)
f
(%)
Тe
(С)
Тes
(С)
Комфортность P
(гПа)
Po
(гПа)
Тmin
(С)
Tmax
(С)
R
(мм)
R24
(мм)
S
(см)
16 13.09 ЮВ 3 3600 м слаб. дождь н/о +26.3 +25.4 95 +38 +38 очень
душно
1002.0 1001.1
17 13.09 ЮВ 1 20 км в посл. час дождь н/о +26.3 +25.4 95 +38 +38 очень
душно
1001.6 1000.7
18 13.09 СВ 2 20 км {дождь} н/о +26.5 +25.8 96 +39 +39 очень
душно
1000.9 1000.0 2
19 13.09 С 2 20 км н/о +26.6 +25.7 95 +39 +39 очень
душно
1001.0 1000.1
21 13.09 В 3 11 км в посл. час дождь н/о +26.5 +25.6 95 +39 +39 очень
душно
1001.4 1000.5
00 14.09 Ю 2 20 км в посл. час дождь н/о +28.8 +26.2 86 +44 +44 опасность
перегрева
1000.7 999.8 +26.0 2
01 14.09 ЮВ 3 20 км н/о +28.1 +25.3 85 +41 +41 опасность
перегрева
1000.2 999.3
02 14.09 ЮВ 5 20 км н/о +27.7 +25.7 89 +41 +41 опасность
перегрева
1000.1 999.2
03 14.09 ЮВ 4 20 км в посл. час дождь н/о +27.7 +26.1 91 +42 +42 опасность
перегрева
999.3 998.4
04 14.09 ЮВ 4 20 км н/о +28.3 +25.3 84 +41 +41 опасность
перегрева
998.6 997.7
05 14.09 ЮВ 3 20 км н/о +27.7 +25.9 90 +41 +41 опасность
перегрева
998.2 997.3
06 14.09 ЮВ 3 20 км слаб. дождь н/о +27.7 +26.1 91 +42 +42 опасность
перегрева
998.2 997.3 0.5
07 14.09 Ю 2 20 км в посл. час дождь н/о +28.1 +25.9 88 +42 +42 опасность
перегрева
998.1 997.2
08 14.09 Ю 2 13 км в посл. час дождь н/о +27.7 +26.1 91 +42 +42 опасность
перегрева
998.1 997.2
09 14.09 ЮЗ 1 10 км слаб. дождь н/о +27.1 +25.9 93 +40 +40 очень
душно
998.7 997.8
10 14.09 З 1 16 км в посл. час дождь н/о +26.8 +25.9 95 +40 +40 очень
душно
999.2 998.3
11 14.09 ЮВ 1 8000 м в посл. час дождь н/о +26.9 +26.0 95 +40 +40 очень
душно
999.6 998.7
12 14.09 штиль 0 8000 м дымка {дождь} н/о +26.8 +26.1 96 +40 +40 очень
душно
999.7 998.8 +29.2 0.5
13 14.09 ЮЗ 1 10 км н/о +26.8 +25.9 95 +40 +40 очень
душно
999.4 998.5
14 14.09 Ю 2 14 км н/о +27.1 +26.2 95 +41 +41 опасность
перегрева
999.2 998.3
15 14.09 ЮЗ 8 3200 м слаб. дождь н/о +25.9 +25.0 95 +37 +37 очень
душно
999.4 998.5
16 14.09 Ю 9 4700 м слаб. дождь н/о +25.5 +23.6 89 +35 +35 очень
душно
998.8 997.9
18 14.09 Ю 2 9000 м в посл. час дождь н/о +27.3 +26.4 95 +42 +42 опасность
перегрева
998.2 997.3 5
19 14.09 Ю 3 7000 м слаб. дождь н/о +27.9 +27.0 95 +44 +44 опасность
перегрева
998.4 997.5
20 14.09 Ю 5 11 км в посл. час дождь н/о +26.8 +25.6 93 +39 +39 очень
душно
998.8 997.9
21 14.09 Ю 5 19 км слаб. дождь н/о +27.0 +25.8 93 +40 +40 очень
душно
999.0 998.1
22 14.09 Ю 7 1900 м дождь н/о +25.9 +25.0 95 +37 +37 очень
душно
999.5 998.6
23 14.09 Ю 6 2500 м дождь н/о +26.8 +26.1 96 +40 +40 очень
душно
999.4 998.5
00 15.09 Ю 7 5000 м слаб. дождь н/о +27.1 +25.9 93 +40 +40 очень
душно
999.6 998.7 +25.3 27
01 15.09 Ю 8 6000 м слаб. дождь н/о +27.9 +26.5 92 +43 +43 опасность
перегрева
999.0 998.1
02 15.09 Ю 9 8000 м слаб. дождь н/о +27.3 +25.3 89 +40 +40 очень
душно
999.1 998.2
03 15.09 Ю 10 7000 м слаб. дождь н/о +27.9 +26.3 91 +42 +42 опасность
перегрева
999.0 998.1
04 15.09 ЮВ 11 4600 м слаб. дождь н/о +28.0 +26.8 93 +44 +44 опасность
перегрева
998.2 997.3
05 15.09 Ю 13 7000 м слаб. дождь н/о +28.3 +26.7 91 +44 +44 опасность
перегрева
997.9 997.0
06 15.09 Ю 11 5000 м слаб. дождь н/о +28.4 +26.6 90 +44 +44 опасность
перегрева
998.3 997.4 8
07 15.09 ЮВ 9 4200 м слаб. дождь н/о +28.2 +26.6 91 +44 +44 опасность
перегрева
998.6 997.7
08 15.09 Ю 10 3600 м слаб. дождь н/о +28.3 +26.5 90 +44 +44 опасность
перегрева
999.5 998.6
09 15.09 Ю 11 3900 м слаб. дождь н/о +28.2 +26.6 91 +44 +44 опасность
перегрева
1000.1 999.2
10 15.09 ЮВ 10 4400 м слаб. дождь н/о +28.3 +26.7 91 +44 +44 опасность
перегрева
1000.6 999.7
11 15.09 ЮВ 10 2700 м слаб. дождь н/о +28.4 +26.8 91 +44 +44 опасность
перегрева
1001.3 1000.4
12 15.09 ЮВ 11 6000 м слаб. дождь н/о +28.5 +26.5 89 +44 +44 опасность
перегрева
1001.5 1000.6 +28.5 20
13 15.09 ЮВ 9 5000 м слаб. дождь н/о +28.5 +26.5 89 +44 +44 опасность
перегрева
1001.9 1001.0
14 15.09 ЮВ 10 7000 м слаб. дождь н/о +28.6 +26.4 88 +44 +44 опасность
перегрева
1002.0 1001.1
15 15.09 ЮВ 11 8000 м в посл. час дождь н/о +28.7 +26.3 87 +44 +44 опасность
перегрева
1002.2 1001.3
16 15.09 ЮВ 10 8000 м слаб. дождь н/о +28.7 +26.5 88 +44 +44 опасность
перегрева
1002.5 1001.6
17 15.09 ЮВ 10 8000 м слаб. дождь н/о +28.5 +26.5 89 +44 +44 опасность
перегрева
1001.9 1001.0
18 15.09 ЮВ 9 9000 м в посл. час дождь н/о +28.6 +26.2 87 +43 +43 опасность
перегрева
1001.9 1001.0 0.5
19 15.09 ЮВ 9 9000 м слаб. дождь н/о +28.5 +26.3 88 +43 +43 опасность
перегрева
1002.5 1001.6
21 15.09 ЮВ 9 7000 м дымка {дождь} н/о +28.5 +26.3 88 +43 +43 опасность
перегрева
1003.4 1002.5
22 15.09 ЮВ 10 8000 м дымка н/о +28.6 +25.6 84 +42 +42 опасность
перегрева
1003.3 1002.4
23 15.09 ЮВ 9 9000 м дымка н/о +28.8 +26.2 86 +44 +44 опасность
перегрева
1003.8 1002.9
00 16.09 ЮВ 9 11 км {дождь} н/о +29.3 +26.5 85 +45 +45 опасность
перегрева
1004.3 1003.4 +28.4 0.5
03 16.09 ЮВ 9 10 км н/о +29.6 +26.8 85 +46 +46 опасность
перегрева
1003.4 1002.5
04 16.09 ЮВ 8 13 км н/о +29.6 +26.6 84 +46 +46 опасность
перегрева
1002.7 1001.8
05 16.09 ЮВ 10 15 км н/о +29.7 +26.7 84 +46 +46 опасность
перегрева
1002.7 1001.8
06 16.09 ЮВ 9 17 км н/о +29.4 +26.2 83 +45 +45 опасность
перегрева
1003.1 1002.2
07 16.09 ЮВ 9 16 км в посл. час дождь н/о +28.6 +26.4 88 +44 +44 опасность
перегрева
1003.4 1002.5
08 16.09 ЮВ 6 9000 м дымка н/о +28.8 +27.2 91 +46 +46 опасность
перегрева
1003.2 1002.3
09 16.09 В 5 13 км {дождь} н/о +28.5 +27.1 92 +45 +45 опасность
перегрева
1003.1 1002.2
10 16.09 В 5 10 км н/о +28.6 +27.2 92 +45 +45 опасность
перегрева
1003.1 1002.2
11 16.09 В 5 12 км н/о +28.7 +27.1 91 +45 +45 опасность
перегрева
1003.6 1002.7
12 16.09 В 6 6000 м слаб. дождь н/о +28.6 +27.2 92 +45 +45 опасность
перегрева
1003.8 1002.9 +30.3 0.0
13 16.09 В 4 4100 м слаб. дождь н/о +28.5 +27.4 94 +46 +46 опасность
перегрева
1003.6 1002.7
14 16.09 ЮВ 7 12 км в посл. час дождь н/о +28.7 +26.9 90 +45 +45 опасность
перегрева
1003.6 1002.7
15 16.09 ЮВ 5 13 км в посл. час дождь н/о +28.7 +26.9 90 +45 +45 опасность
перегрева
1003.4 1002.5
16 16.09 ЮВ 6 13 км слаб. дождь н/о +28.3 +26.3 89 +43 +43 опасность
перегрева
1003.1 1002.2
17 16.09 ЮВ 5 4800 м слаб. дождь н/о +28.2 +27.0 93 +44 +44 опасность
перегрева
1002.9 1002.0
18 16.09 Ю 1 3800 м слаб. дождь н/о +27.6 +27.1 97 +43 +43 опасность
перегрева
1002.8 1001.9 0.5
19 16.09 Ю 1 10 км в посл. час дождь н/о +27.7 +27.2 97 +44 +44 опасность
перегрева
1003.7 1002.8
20 16.09 ЮЗ 2 13 км в посл. час дождь н/о +27.6 +27.1 97 +43 +43 опасность
перегрева
1004.6 1003.7
21 16.09 ЮЗ 4 15 км в посл. час дождь н/о +28.1 +27.2 95 +45 +45 опасность
перегрева
1005.2 1004.3
22 16.09 Ю 3 12 км н/о +28.4 +27.2 93 +45 +45 опасность
перегрева
1005.7 1004.8
23 16.09 Ю 4 15 км н/о +29.2 +27.4 90 +47 +47 опасность
перегрева
1006.4 1005.5
00 17.09 Ю 3 15 км {дождь} н/о +29.7 +27.5 88 +48 +48 опасность
перегрева
1007.0 1006.1 +27.5 0.5
01 17.09 Ю 4 20 км н/о +30.2 +27.4 85 +48 +48 опасность
перегрева
1007.2 1006.3
02 17.09 Ю 3 17 км н/о +30.2 +27.8 87 +49 +49 опасность
перегрева
1007.3 1006.4
03 17.09 Ю 4 19 км н/о +29.9 +27.3 86 +48 +48 опасность
перегрева
1007.3 1006.4
04 17.09 Ю 4 14 км н/о +29.7 +27.3 87 +47 +47 опасность
перегрева
1007.2 1006.3
05 17.09 Ю 3 15 км в посл. час дождь н/о +29.9 +27.5 87 +48 +48 опасность
перегрева
1007.2 1006.3
06 17.09 Ю 3 13 км {дождь} н/о +29.7 +27.3 87 +47 +47 опасность
перегрева
1007.4 1006.5 0.0
07 17.09 Ю 2 11 км н/о +29.4 +27.4 89 +47 +47 опасность
перегрева
1007.9 1007.0
08 17.09 Ю 3 11 км н/о +29.0 +27.0 89 +46 +46 опасность
перегрева
1008.4 1007.5
09 17.09 Ю 4 11 км н/о +28.8 +27.0 90 +45 +45 опасность
перегрева
1008.9 1008.0
11 17.09 Ю 3 14 км н/о +28.5 +26.3 88 +43 +43 опасность
перегрева
1010.2 1009.3
12 17.09 Ю 4 12 км н/о +28.4 +26.4 89 +43 +43 опасность
перегрева
1010.7 1009.8 +30.8 0.0
13 17.09 Ю 4 14 км н/о +28.3 +26.3 89 +43 +43 опасность
перегрева
1011.0 1010.1
14 17.09 Ю 3 17 км н/о +28.3 +26.3 89 +43 +43 опасность
перегрева
1010.7 1009.8
15 17.09 Ю 3 17 км н/о +28.1 +25.9 88 +42 +42 опасность
перегрева
1010.5 1009.6
16 17.09 Ю 4 17 км н/о +28.1 +25.9 88 +42 +42 опасность
перегрева
1010.5 1009.6
18 17.09 Ю 3 18 км н/о +28.0 +26.2 90 +42 +42 опасность
перегрева
1010.3 1009.4
20 17.09 ЮВ 5 16 км н/о +28.1 +26.3 90 +43 +43 опасность
перегрева
1010.4 1009.5
21 17.09 Ю 4 18 км н/о +28.2 +26.4 90 +43 +43 опасность
перегрева
1010.7 1009.8
23 17.09 Ю 5 17 км н/о +29.4 +26.0 82 +44 +44 опасность
перегрева
1011.3 1010.4
00 18.09 Ю 4 20 км н/о +30.3 +27.1 83 +48 +48 опасность
перегрева
1011.3 1010.4 +27.9
01 18.09 Ю 5 20 км н/о +30.4 +26.6 80 +47 +47 опасность
перегрева
1011.2 1010.3
02 18.09 Ю 5 18 км н/о +30.1 +26.3 80 +46 +46 опасность
перегрева
1011.1 1010.2
03 18.09 Ю 4 20 км н/о +30.6 +26.8 80 +48 +48 опасность
перегрева
1010.7 1009.8
04 18.09 Ю 5 19 км н/о +30.2 +26.8 82 +47 +47 опасность
перегрева
1010.4 1009.5
05 18.09 Ю 4 20 км н/о +30.4 +25.9 77 +45 +45 опасность
перегрева
1009.9 1009.0
06 18.09 Ю 4 20 км н/о +30.5 +25.6 75 +45 +45 опасность
перегрева
1009.7 1008.8
07 18.09 ЮВ 4 20 км н/о +29.5 +26.3 83 +45 +45 опасность
перегрева
1009.8 1008.9
09 18.09 ЮВ 3 20 км н/о +28.9 +26.7 88 +45 +45 опасность
перегрева
1010.5 1009.6
10 18.09 ЮВ 5 20 км в посл. час дождь н/о +28.4 +26.2 88 +43 +43 опасность
перегрева
1011.0 1010.1
11 18.09 Ю 6 20 км н/о +28.3 +26.1 88 +43 +43 опасность
перегрева
1011.2 1010.3
12 18.09 Ю 3 20 км слаб. дождь н/о +27.8 +25.8 89 +41 +41 опасность
перегрева
1011.4 1010.5 +30.9 0.5
13 18.09 Ю 5 20 км в посл. час дождь н/о +28.0 +26.0 89 +42 +42 опасность
перегрева
1011.1 1010.2
14 18.09 Ю 6 20 км н/о +28.0 +26.2 90 +42 +42 опасность
перегрева
1010.2 1009.3
15 18.09 Ю 3 19 км {дождь} н/о +28.0 +26.2 90 +42 +42 опасность
перегрева
1009.7 1008.8
16 18.09 Ю 6 20 км н/о +28.1 +26.1 89 +42 +42 опасность
перегрева
1009.5 1008.6
17 18.09 Ю 5 20 км н/о +28.3 +26.3 89 +43 +43 опасность
перегрева
1009.4 1008.5
18 18.09 Ю 4 6000 м слаб. дождь н/о +28.1 +26.3 90 +43 +43 опасность
перегрева
1009.6 1008.7 0.5
19 18.09 Ю 4 20 км в посл. час дождь н/о +27.8 +26.2 91 +42 +42 опасность
перегрева
1009.7 1008.8
20 18.09 Ю 3 19 км н/о +27.9 +26.3 91 +42 +42 опасность
перегрева
1009.9 1009.0
21 18.09 Ю 3 20 км {дождь} н/о +28.1 +26.5 91 +43 +43 опасность
перегрева
1010.1 1009.2
22 18.09 Ю 3 20 км н/о +28.4 +26.0 87 +43 +43 опасность
перегрева
1010.6 1009.7
23 18.09 Ю 4 20 км н/о +28.8 +26.4 87 +44 +44 опасность
перегрева
1011.1 1010.2
00 19.09 Ю 2 20 км {дождь} н/о +29.6 +26.6 84 +46 +46 опасность
перегрева
1010.9 1010.0 +27.7 2
01 19.09 Ю 3 20 км н/о +29.4 +26.6 85 +45 +45 опасность
перегрева
1011.2 1010.3
02 19.09 ЮЗ 4 20 км в посл. час дождь н/о +29.9 +26.9 84 +47 +47 опасность
перегрева
1011.0 1010.1
03 19.09 Ю 6 20 км слаб. дождь н/о +29.5 +26.3 83 +45 +45 опасность
перегрева
1010.6 1009.7
04 19.09 Ю 3 10 км слаб. дождь н/о +28.0 +26.8 93 +44 +44 опасность
перегрева
1010.3 1009.4
05 19.09 Ю 5 20 км в посл. час дождь н/о +29.6 +26.8 85 +46 +46 опасность
перегрева
1010.0 1009.1
06 19.09 Ю 5 20 км {дождь} н/о +29.3 +26.7 86 +46 +46 опасность
перегрева
1010.0 1009.1 2
07 19.09 Ю 4 17 км в посл. час дождь н/о +28.9 +26.7 88 +45 +45 опасность
перегрева
1010.0 1009.1
08 19.09 Ю 3 20 км н/о +28.8 +26.4 87 +44 +44 опасность
перегрева
1010.4 1009.5
09 19.09 В 3 18 км {дождь} н/о +28.5 +26.1 87 +43 +43 опасность
перегрева
1010.5 1009.6
11 19.09 В 2 16 км н/о +28.5 +26.3 88 +43 +43 опасность
перегрева
1011.8 1010.9
12 19.09 Ю 3 16 км {дождь} н/о +27.5 +25.5 89 +40 +40 очень
душно
1012.1 1011.2 +30.2 2
13 19.09 СЗ 2 14 км в посл. час дождь н/о +27.4 +25.8 91 +41 +41 опасность
перегрева
1011.8 1010.9
14 19.09 В 2 9000 м слаб. дождь н/о +27.5 +25.9 91 +41 +41 опасность
перегрева
1011.8 1010.9
15 19.09 ЮВ 2 12 км в посл. час дождь н/о +27.7 +26.7 94 +43 +43 опасность
перегрева
1011.8 1010.9
16 19.09 С 3 15 км н/о +28.1 +26.3 90 +43 +43 опасность
перегрева
1011.3 1010.4
18 19.09 СВ 2 9000 м в посл. час дождь н/о +28.1 +26.5 91 +43 +43 опасность
перегрева
1011.3 1010.4 1
19 19.09 Ю 2 7000 м слаб. дождь н/о +27.5 +26.6 95 +42 +42 опасность
перегрева
1011.4 1010.5
20 19.09 СВ 1 10 км в посл. час дождь н/о +27.7 +26.3 92 +42 +42 опасность
перегрева
1011.6 1010.7
21 19.09 В 1 11 км слаб. дождь н/о +27.4 +25.8 91 +41 +41 опасность
перегрева
1011.7 1010.8
22 19.09 В 1 15 км в посл. час дождь н/о +28.4 +25.8 86 +42 +42 опасность
перегрева
1012.3 1011.4
23 19.09 С 1 14 км н/о +28.8 +26.2 86 +44 +44 опасность
перегрева
1012.5 1011.6
00 20.09 ЮВ 2 14 км {дождь} н/о +28.8 +26.0 85 +43 +43 опасность
перегрева
1012.5 1011.6 +26.8 2
01 20.09 СВ 1 6000 м слаб. дождь н/о +27.9 +26.5 92 +43 +43 опасность
перегрева
1012.6 1011.7
02 20.09 С 1 15 км слаб. дождь н/о +28.4 +26.4 89 +43 +43 опасность
перегрева
1012.4 1011.5
03 20.09 СЗ 3 18 км {дождь} н/о +30.2 +26.8 82 +47 +47 опасность
перегрева
1012.1 1011.2
04 20.09 В 3 10 км слаб. дождь н/о +28.0 +26.2 90 +42 +42 опасность
перегрева
1011.5 1010.6
05 20.09 З 1 11 км в посл. час дождь н/о +29.6 +27.2 87 +47 +47 опасность
перегрева
1011.5 1010.6
06 20.09 ЮВ 2 14 км {дождь} н/о +29.0 +26.4 86 +44 +44 опасность
перегрева
1011.6 1010.7 5
07 20.09 В 2 14 км н/о +29.5 +26.3 83 +45 +45 опасность
перегрева
1012.0 1011.1
08 20.09 СВ 3 16 км н/о +29.0 +26.2 85 +44 +44 опасность
перегрева
1012.4 1011.5
09 20.09 С 2 17 км н/о +28.7 +26.1 86 +43 +43 опасность
перегрева
1012.7 1011.8
10 20.09 С 2 17 км н/о +28.5 +26.1 87 +43 +43 опасность
перегрева
1013.3 1012.4
11 20.09 С 1 12 км н/о +27.4 +26.4 94 +42 +42 опасность
перегрева
1013.9 1013.0
12 20.09 С 1 11 км н/о +27.3 +26.4 95 +42 +42 опасность
перегрева
1013.8 1012.9 +30.6 5
13 20.09 С 2 13 км н/о +27.9 +26.5 92 +43 +43 опасность
перегрева
1013.8 1012.9
14 20.09 С 1 9000 м дымка н/о +27.6 +26.4 93 +42 +42 опасность
перегрева
1013.3 1012.4
15 20.09 СЗ 1 10 км н/о +26.9 +26.2 96 +41 +41 опасность
перегрева
1013.2 1012.3

 

Местоположение метеостанции Титидзима (Япония): широта 27.08 долгота 142.20 высота над уровнем моря 7.9 м.

В архиве по умолчанию представлена погода на Титидзиме за последнюю неделю. Архивные данные за месяц целиком и за предыдущие месяцы, начиная с января 2011 года, Вы можете получить, выбрав интересующий диапазон дат из раскрывающегося списка и нажав кнопку "Ввод!".


*Определитесь, кто Вы:
робот инопланетянин человек

Внимание! Время в таблицах - всемирное. Для получения местного времени необходимо прибавить поправку, которая равна 9 ч.

Смотрите также архив погоды в соседних городах и на ближайших метеорологических станциях:

Погода на Хатидзёдзиме (Япония) (711 км)
Погода на Миякедзиме (Япония) (824 км)
Погода на Осиме (Япония) (894 км)
Погода в Иродзаки (Япония) (895 км)
Погода в Татеяме (Япония) (906 км)
Погода в Кацууре (Япония) (915 км)
Погода в Омаэдзаки (Япония) (919 км)
Погода в Аджиро (Япония) (934 км)
Погода в Сиономисаки (Япония) (940 км)
Погода в Мисиме (Япония) (947 км)

Пояснения к столбцам:

Ветер - указаны скорость ветра в м/с - средняя за 10 мин, порывы в срок и между сроками (в фигурных скобках) и направление, откуда дует ветер: С - северный, СВ - северо-восточный, В - восточный, ЮВ - юго-восточный, Ю - южный, ЮЗ - юго-западный, З - западный, СЗ - северо-западный.
Видимость - горизонтальная дальность видимости в метрах или километрах. При видимости от 1 до 10 км при отсутствии осадков обычно наблюдается дымка, при ухудшении видимости до 1 км и менее - туман. В сухую погоду видимость может ухудшаться дымом, пылью или мглою.
Явления - указаны атмосферные явления, наблюдавшиеся в срок или в последний час перед сроком; фигурными скобками обозначены явления, наблюдавшиеся между сроками (за 1-3 часа до срока); квадратными скобками обозначены град или гололедные отложения с указанием их диаметра в мм.
Облачность - указаны через наклонную черту общая и нижняя облачность в баллах и высота нижней границы облаков в метрах; квадратными скобками обозначены формы облаков: Ci - перистые, Cs - перисто-слоистые, Cc - перисто-кучевые, Ac - высококучевые, As - высокослоистые, Sc - слоисто-кучевые, Ns - слоисто-дождевые, Cu - кучевые, Cb - кучево-дождевые. Подробнее классификацию облаков см. в Атласе облаков (PDF).
T - Температура воздуха - температура, измеренная на высоте 2 м над землей.
Td - Температура точки росы - температура, при понижении до которой содержащийся в воздухе водяной пар достигнет насыщения.
f - Относительная влажность воздуха - влажноcть воздуха, измеренная на высоте 2 м над землей.
Te - Эффективная температура - температура, которую ощущает одетый по сезону человек в тени. Характеристика душности погоды. При расчете учитывается влияние влажности воздуха и скорости ветра на теплоощущения человека.
Tes - Эффективная температура на солнце - температура, которую ощущает человек, с поправкой на солнечный нагрев. Характеристика знойности погоды. Зависит от высоты солнца над горизонтом, облачности и скорости ветра. Ночью, в пасмурную погоду, а также при ветре 12 м/с и более поправка равна нулю.
P - Атмосферное давление - приведенное к уровню моря атмосферное давление.
Po - Атмосферное давление - измеренное на уровне метеостанции атмосферное давление.
Tmin - Минимальная температура - минимум температуры воздуха на высоте 2 м над землей.
Tmax - Максимальная температура - максимум температуры воздуха на высоте 2 м над землей.
R - Количество осадков - Количество выпавших осадков за период времени, мм. При наведении курсора мыши на число - период времени, за который выпало указанное количество осадков.
R24 - Количество осадков - Количество выпавших осадков за 24 часа, мм.
S - Снежный покров - Высота снежного покрова, см. При наведении курсора мыши на число - состояние снежного покрова и степень покрытия местности в баллах.